#timestamp,LO_Frequency,Hit,StdDev 
1637254815.0,286047000.4,N
1637254815.9,286047000.4,N
1637254835.8,286047002.7,N
1637254855.6,286047000.4,N
1637254875.4,286047000.4,N
1637254895.3,286047000.5,N
1637254915.1,286046999.5,N
1637254935.8,286046999.2,N
1637254955.7,286046998.7,N
1637254975.5,286047001.1,N
1637254995.4,286046999.4,N
1637255015.2,286046998.1,N
1637255035.0,286046998.6,N
1637255035.9,286046998.6,N
1637255055.8,286046998.6,N
1637255075.6,286046998.3,N
1637255095.4,286047000.8,N
1637255115.3,286047000.7,N
1637255135.1,286047000.6,N
1637255155.9,286047002.4,N
1637255175.7,286047002.5,N
1637255195.5,286047002.4,N
1637255215.4,286047002.5,N
1637255235.2,286046999.9,N
1637255255.0,286046998.5,N
1637255255.9,286046998.5,N
1637255275.8,286047000.9,N
1637255295.6,286046998.7,N
1637255315.5,286046999.0,N
1637255335.3,286047000.7,N
1637255355.1,286046999.9,N
1637255375.9,286047000.7,N
1637255395.7,286047001.2,N
1637255415.5,286047001.0,N
1637255435.4,286047000.6,N
1637255455.2,286047000.3,N
1637255475.1,286047002.7,N
1637255476.0,286047002.7,N
1637255495.8,286047002.8,N
1637255515.6,286047002.5,N
1637255535.5,286047004.0,N
1637255555.3,286047001.9,N
1637255575.1,286047000.6,N
1637255595.9,286047000.2,N
1637255615.7,286047002.4,N
1637255635.6,286047001.5,N
1637255655.4,286047002.7,N
1637255675.2,286047000.2,N
1637255695.1,286047000.2,N
1637255696.0,286047000.2,N
1637255715.8,286047000.2,N
1637255735.6,286047002.6,N
1637255755.5,286046999.7,N
1637255775.3,286046999.9,N
1637255795.2,286047000.4,N
1637255815.9,286047001.9,N
1637255835.7,286046999.9,N
1637255855.6,286047000.5,N
1637255875.4,286047002.7,N
1637255895.2,286047000.1,N
1637255915.1,286047000.3,N
1637255916.0,286047000.3,N
1637255935.8,286047000.0,N
1637255955.7,286047002.6,N
1637255975.5,286047002.0,N
1637255995.3,286047000.2,N
1637256015.2,286047000.8,N
1637256035.0,286047002.8,N
1637256035.9,286047002.8,N
1637256055.8,286047002.2,N
1637256075.6,286047002.2,N
1637256095.4,286047002.2,N
1637256115.3,286047002.1,N
1637256135.1,286047002.1,N
1637256155.8,286047002.2,N
1637256175.7,286047000.2,N
1637256195.5,286047000.4,N
1637256215.4,286046999.9,N
1637256235.2,286047002.8,N
1637256255.0,286047000.0,N
1637256255.9,286047000.0,N
1637256275.8,286047001.6,N
1637256295.6,286047004.3,Y
1637256315.4,286047002.0,P
1637256335.3,286047001.8,P
1637256355.1,286047002.1,P
1637256375.9,286047002.1,Y
1637256395.7,286047001.2,P
1637256415.5,286047000.4,N
1637256435.4,286047001.0,N
1637256455.2,286047000.6,N
1637256475.0,286047002.7,Y
1637256476.0,286047002.7,P
1637256495.8,286047000.0,N
1637256515.6,286047000.6,N
1637256535.5,286047001.1,N
1637256555.3,286047000.5,N
1637256575.1,286046999.0,N
1637256595.9,286046996.5,Y
1637256615.7,286046996.8,P
1637256635.6,286046997.1,N
1637256655.4,286046997.5,N
1637256675.2,286046997.1,N
1637256695.1,286046996.8,N
1637256696.0,286046996.8,N
1637256715.8,286046996.5,N
1637256735.6,286046996.7,N
1637256755.5,286046994.9,Y
1637256775.3,286046998.2,P
1637256795.2,286047000.8,N
1637256815.9,286047000.9,N
1637256835.7,286046999.8,N
1637256855.6,286046999.7,N
1637256875.4,286047000.6,N
1637256895.3,286047000.9,N
1637256915.1,286047000.2,N
1637256916.0,286047000.2,N
1637256935.8,286047000.9,N
1637256955.7,286047000.6,N
1637256975.5,286047002.8,N
1637256995.3,286047002.5,N
1637257015.2,286047002.7,N
1637257035.0,286047002.8,N
1637257035.9,286047002.8,N
1637257055.8,286047001.0,N
1637257075.6,286047000.9,N
1637257095.4,286046999.9,N
1637257115.3,286047002.7,N
1637257135.1,286046999.8,N
1637257155.8,286047000.3,N
1637257175.7,286047000.0,N
1637257195.5,286047000.3,N
1637257215.4,286047000.4,N
1637257235.2,286046999.7,N
1637257255.0,286047002.7,N
1637257255.9,286047002.7,N
1637257275.8,286047000.1,N
1637257295.6,286047002.7,N
1637257315.4,286046999.9,N
1637257335.3,286047002.8,N
1637257355.1,286047002.7,N
1637257375.8,286047000.2,N
1637257395.7,286047000.1,N
1637257415.5,286047000.8,N
1637257435.4,286047000.2,N
1637257455.2,286047000.1,N
1637257475.0,286046999.9,N
1637257475.9,286046999.9,N
1637257495.8,286046999.8,N
1637257515.6,286047000.0,N
1637257535.5,286047000.1,N
1637257555.3,286046999.8,N
1637257575.1,286047002.8,N
1637257595.9,286046999.9,N
1637257615.7,286047002.3,N
1637257635.5,286047002.4,N
1637257655.4,286047000.2,N
1637257675.2,286047002.7,N
1637257695.1,286047002.7,N
1637257696.0,286047002.7,N
1637257715.8,286047001.7,N
1637257735.6,286047001.5,N
1637257755.5,286047002.2,N
1637257775.3,286046999.8,N
1637257795.1,286046999.7,N
1637257815.9,286047002.7,N
1637257835.7,286047002.1,N
1637257855.6,286046999.7,N
1637257875.4,286047002.3,N
1637257895.2,286047002.2,N
1637257915.1,286047002.8,N
1637257916.0,286047002.8,N
1637257935.8,286047002.1,N
1637257955.6,286047004.4,Y
1637257975.5,286047002.8,P
1637257995.3,286046999.7,N
1637258015.2,286047002.5,N
1637258035.9,286046999.7,N
1637258055.7,286047001.3,N
1637258075.6,286047003.1,N
1637258095.4,286047003.8,N
1637258115.2,286047001.9,N
1637258135.1,286047002.7,N
1637258136.0,286047002.7,N
1637258155.8,286046999.7,N
1637258175.7,286046999.8,N
1637258195.5,286047000.6,N
1637258215.3,286047002.8,N
1637258235.2,286047001.2,N
1637258255.0,286046998.8,N
1637258255.9,286046998.8,N
1637258275.7,286046998.4,N
1637258295.6,286046998.2,N
1637258315.4,286046998.1,N
1637258335.3,286047000.9,N
1637258355.1,286047000.3,N
1637258356.0,286047000.3,N
1637258375.8,286047001.0,N
1637258395.7,286047000.1,N
